Hourly Weather 2-e Itkulovo

Today, 22 October, Thursday

Time Temperature Precipitation Wind Pressure Humidity
00:00 -5°C° 0.1 mm 5 mps 709 mmHg 89%
01:00 -5°C° 0.1 mm 5 mps 709 mmHg 89%
02:00 -6°C° 0 mm 5 mps 709 mmHg 87%
03:00 -8°C° 0 mm 6 mps 709 mmHg 84%
04:00 -8°C° 0 mm 6 mps 709 mmHg 82%
05:00 -8°C° 0 mm 6 mps 710 mmHg 83%
06:00 -8°C° 0 mm 6 mps 710 mmHg 84%
07:00 -8°C° 0 mm 6 mps 710 mmHg 86%
08:00 -6°C° 0 mm 6 mps 710 mmHg 79%
09:00 -7°C° 0 mm 7 mps 711 mmHg 72%
10:00 -6°C° 0 mm 7 mps 711 mmHg 65%
11:00 -6°C° 0 mm 7 mps 711 mmHg 65%
12:00 -4°C° 0 mm 7 mps 711 mmHg 65%
13:00 -4°C° 0 mm 7 mps 711 mmHg 64%
14:00 -4°C° 0 mm 6 mps 712 mmHg 67%
15:00 -5°C° 0 mm 6 mps 712 mmHg 70%
16:00 -5°C° 0 mm 6 mps 712 mmHg 73%
17:00 -6°C° 0 mm 5 mps 713 mmHg 78%
18:00 -6°C° 0 mm 5 mps 713 mmHg 83%
19:00 -7°C° 0 mm 4 mps 713 mmHg 89%
20:00 -7°C° 0.1 mm 4 mps 713 mmHg 88%
21:00 -7°C° 0.1 mm 4 mps 713 mmHg 88%
22:00 -7°C° 0.1 mm 5 mps 713 mmHg 88%
23:00 -7°C° 0 mm 4 mps 713 mmHg 88%

Tomorrow, 23 October, Friday

Time Temperature Precipitation Wind Pressure Humidity
00:00 -7°C° 0 mm 4 mps 713 mmHg 88%
01:00 -7°C° 0 mm 4 mps 713 mmHg 88%
02:00 -8°C° 0 mm 4 mps 713 mmHg 89%
03:00 -8°C° 0 mm 4 mps 714 mmHg 89%
04:00 -8°C° 0 mm 4 mps 714 mmHg 90%
05:00 -7°C° 0 mm 3 mps 714 mmHg 91%
06:00 -7°C° 0 mm 3 mps 714 mmHg 92%
07:00 -8°C° 0 mm 3 mps 714 mmHg 93%
08:00 -7°C° 0 mm 3 mps 715 mmHg 86%
09:00 -5°C° 0 mm 3 mps 715 mmHg 80%
10:00 -4°C° 0 mm 4 mps 715 mmHg 73%
11:00 -4°C° 0 mm 4 mps 715 mmHg 71%
12:00 -3°C° 0 mm 4 mps 715 mmHg 69%
13:00 -3°C° 0 mm 4 mps 715 mmHg 67%
14:00 -2°C° 0 mm 3 mps 715 mmHg 67%
15:00 -2°C° 0 mm 3 mps 715 mmHg 68%
16:00 -2°C° 0 mm 2 mps 715 mmHg 69%
17:00 -2°C° 0 mm 2 mps 715 mmHg 73%
18:00 -3°C° 0 mm 2 mps 715 mmHg 76%
19:00 -3°C° 0 mm 2 mps 714 mmHg 79%
20:00 -4°C° 0.1 mm 3 mps 714 mmHg 84%
21:00 -4°C° 0.1 mm 3 mps 714 mmHg 88%
22:00 -4°C° 0.1 mm 4 mps 713 mmHg 93%
23:00 -4°C° 0.5 mm 4 mps 713 mmHg 94%

Day after tomorrow, 24 October, Saturday

Time Temperature Precipitation Wind Pressure Humidity
00:00 -3°C° 0.5 mm 4 mps 712 mmHg 95%
01:00 -3°C° 0.5 mm 4 mps 712 mmHg 96%
02:00 -2°C° 0.4 mm 4 mps 711 mmHg 96%
03:00 -2°C° 0.4 mm 4 mps 711 mmHg 97%
04:00 0°C° 0.4 mm 3 mps 711 mmHg 97%
05:00 0°C° 0.2 mm 4 mps 710 mmHg 97%
06:00 0°C° 0.2 mm 4 mps 710 mmHg 98%
07:00 +1°C° 0.2 mm 4 mps 709 mmHg 98%
08:00 +1°C° 0.6 mm 4 mps 709 mmHg 98%
09:00 +1°C° 0.6 mm 4 mps 708 mmHg 98%
10:00 +3°C° 0.6 mm 4 mps 708 mmHg 98%
11:00 +3°C° 0.5 mm 4 mps 707 mmHg 98%
12:00 +4°C° 0.5 mm 4 mps 707 mmHg 98%
13:00 +4°C° 0.5 mm 4 mps 707 mmHg 98%
14:00 +4°C° 1 mm 4 mps 706 mmHg 97%
15:00 +4°C° 1 mm 4 mps 706 mmHg 97%
16:00 +4°C° 1 mm 4 mps 705 mmHg 97%
17:00 +4°C° 1.2 mm 4 mps 705 mmHg 97%
18:00 +5°C° 1.2 mm 4 mps 705 mmHg 97%
19:00 +5°C° 1.2 mm 4 mps 705 mmHg 97%
20:00 +5°C° 0.3 mm 4 mps 705 mmHg 96%
21:00 +5°C° 0.3 mm 5 mps 706 mmHg 96%
22:00 +5°C° 0.3 mm 5 mps 706 mmHg 95%
23:00 +5°C° 0 mm 5 mps 707 mmHg 95%

, 25 October, Sunday

Time Temperature Precipitation Wind Pressure Humidity
00:00 +3°C° 0 mm 5 mps 707 mmHg 95%
01:00 +4°C° 0 mm 4 mps 708 mmHg 95%
02:00 +4°C° 0 mm 4 mps 708 mmHg 95%
03:00 +3°C° 0 mm 3 mps 709 mmHg 96%
04:00 +3°C° 0 mm 3 mps 709 mmHg 96%
05:00 +3°C° 0 mm 3 mps 710 mmHg 96%
06:00 +3°C° 0 mm 3 mps 710 mmHg 96%
07:00 +3°C° 0 mm 3 mps 710 mmHg 96%
08:00 +4°C° 0 mm 3 mps 711 mmHg 94%
09:00 +4°C° 0 mm 3 mps 711 mmHg 92%
10:00 +5°C° 0 mm 3 mps 711 mmHg 90%
11:00 +5°C° 0 mm 3 mps 711 mmHg 89%
12:00 +5°C° 0 mm 4 mps 711 mmHg 88%
13:00 +6°C° 0 mm 4 mps 711 mmHg 87%
14:00 +7°C° 0 mm 3 mps 711 mmHg 88%
15:00 +5°C° 0 mm 3 mps 711 mmHg 90%
16:00 +5°C° 0 mm 3 mps 711 mmHg 91%
17:00 +6°C° 0 mm 2 mps 711 mmHg 92%
18:00 +5°C° 0 mm 2 mps 711 mmHg 94%
19:00 +6°C° 0 mm 1 mps 710 mmHg 95%
20:00 +5°C° 0 mm 2 mps 710 mmHg 96%
21:00 +5°C° 0 mm 2 mps 709 mmHg 96%
22:00 +5°C° 0 mm 2 mps 709 mmHg 97%
23:00 +5°C° 0.6 mm 2 mps 708 mmHg 97%

25 October, Sunday

Time Temperature Precipitation Wind Pressure Humidity
00:00 +3°C° 0 mm 5 mps 707 mmHg 95%
01:00 +4°C° 0 mm 4 mps 708 mmHg 95%
02:00 +4°C° 0 mm 4 mps 708 mmHg 95%
03:00 +3°C° 0 mm 3 mps 709 mmHg 96%
04:00 +3°C° 0 mm 3 mps 709 mmHg 96%
05:00 +3°C° 0 mm 3 mps 710 mmHg 96%
06:00 +3°C° 0 mm 3 mps 710 mmHg 96%
07:00 +3°C° 0 mm 3 mps 710 mmHg 96%
08:00 +4°C° 0 mm 3 mps 711 mmHg 94%
09:00 +4°C° 0 mm 3 mps 711 mmHg 92%
10:00 +5°C° 0 mm 3 mps 711 mmHg 90%
11:00 +5°C° 0 mm 3 mps 711 mmHg 89%
12:00 +5°C° 0 mm 4 mps 711 mmHg 88%
13:00 +6°C° 0 mm 4 mps 711 mmHg 87%
14:00 +7°C° 0 mm 3 mps 711 mmHg 88%
15:00 +5°C° 0 mm 3 mps 711 mmHg 90%
16:00 +5°C° 0 mm 3 mps 711 mmHg 91%
17:00 +6°C° 0 mm 2 mps 711 mmHg 92%
18:00 +5°C° 0 mm 2 mps 711 mmHg 94%
19:00 +6°C° 0 mm 1 mps 710 mmHg 95%
20:00 +5°C° 0 mm 2 mps 710 mmHg 96%
21:00 +5°C° 0 mm 2 mps 709 mmHg 96%
22:00 +5°C° 0 mm 2 mps 709 mmHg 97%
23:00 +5°C° 0.6 mm 2 mps 708 mmHg 97%

26 October, Monday

Time Temperature Precipitation Wind Pressure Humidity
00:00 +4°C° 0.6 mm 3 mps 708 mmHg 98%
01:00 +5°C° 0.6 mm 3 mps 707 mmHg 98%
02:00 +5°C° 1.6 mm 3 mps 706 mmHg 98%
03:00 +6°C° 1.6 mm 4 mps 705 mmHg 97%
04:00 +6°C° 1.6 mm 4 mps 705 mmHg 97%
05:00 +7°C° 0.1 mm 4 mps 704 mmHg 97%
06:00 +7°C° 0.1 mm 4 mps 703 mmHg 97%
07:00 +7°C° 0.1 mm 4 mps 703 mmHg 97%
08:00 +7°C° 0.1 mm 4 mps 702 mmHg 95%
09:00 +7°C° 0.1 mm 4 mps 702 mmHg 94%
10:00 +7°C° 0.1 mm 4 mps 701 mmHg 92%
11:00 +8°C° 0.7 mm 4 mps 701 mmHg 90%
12:00 +8°C° 0.7 mm 4 mps 701 mmHg 87%
13:00 +8°C° 0.7 mm 4 mps 700 mmHg 84%
14:00 +7°C° 0.6 mm 4 mps 700 mmHg 86%
15:00 +6°C° 0.6 mm 5 mps 700 mmHg 88%
16:00 +6°C° 0.6 mm 5 mps 700 mmHg 89%
17:00 +4°C° 0.8 mm 6 mps 701 mmHg 88%
18:00 +3°C° 0.8 mm 7 mps 701 mmHg 87%
19:00 +1°C° 0.8 mm 8 mps 701 mmHg 86%
20:00 0°C° 0 mm 8 mps 702 mmHg 85%
21:00 -3°C° 0 mm 9 mps 702 mmHg 84%
22:00 -4°C° 0 mm 9 mps 703 mmHg 83%
23:00 -5°C° 0 mm 9 mps 703 mmHg 82%

27 October, Tuesday

Time Temperature Precipitation Wind Pressure Humidity
00:00 -6°C° 0 mm 9 mps 704 mmHg 80%
01:00 -9°C° 0 mm 9 mps 704 mmHg 79%
02:00 -8°C° 0 mm 8 mps 704 mmHg 79%
03:00 -8°C° 0 mm 8 mps 704 mmHg 79%
04:00 -8°C° 0 mm 8 mps 704 mmHg 79%
05:00 -8°C° 0.1 mm 8 mps 704 mmHg 82%
06:00 -8°C° 0.1 mm 7 mps 705 mmHg 84%
07:00 -7°C° 0.1 mm 7 mps 705 mmHg 86%
08:00 -7°C° 0.3 mm 7 mps 705 mmHg 85%
09:00 -6°C° 0.3 mm 7 mps 705 mmHg 84%
10:00 -4°C° 0.3 mm 6 mps 706 mmHg 83%
11:00 -4°C° 0.1 mm 7 mps 706 mmHg 80%
12:00 -3°C° 0.1 mm 7 mps 707 mmHg 76%
13:00 -2°C° 0.1 mm 8 mps 707 mmHg 73%
14:00 -2°C° 0 mm 7 mps 708 mmHg 74%
15:00 -2°C° 0 mm 7 mps 709 mmHg 75%
16:00 -2°C° 0 mm 6 mps 709 mmHg 76%
17:00 -2°C° 0 mm 6 mps 710 mmHg 78%
18:00 -2°C° 0 mm 5 mps 710 mmHg 81%
19:00 -4°C° 0 mm 5 mps 711 mmHg 83%
20:00 -4°C° 0 mm 5 mps 712 mmHg 83%
21:00 -4°C° 0 mm 5 mps 712 mmHg 83%
22:00 -3°C° 0 mm 4 mps 713 mmHg 84%
23:00 -4°C° 0 mm 4 mps 713 mmHg 84%
Show more